Location: Newark
(58.8333°N, 23.5833°E)
Time: 17:58:39
(UTC+00:00)

METEOR M2 - Pass Details

Date: 12 December 2019
Orbit: 819 x 827 km, 98.5° (Epoch: 26 January)

Event Time Altitude Azimuth Distance (km) Brightness Sun altitude
Exits shadow 17:19:36 37° 3° (N) 1,256 ? -27.3°
Drops below altitude 10° 17:22:56 10° 347° (NNW) 2,432 ? -27.8°
Sets 17:25:19 0° 344° (NNW) 3,368 ? -28.1°
